Regional Weather Roundup
Issued by NWS New Orleans/Baton Rouge, LA

Home | Current Version | Previous Version | Text Only | Print | Product List | Glossary On
Versions: 1 2 3 4 5 6 7 8 9 10 11 12 13 14 15 16 17 18 19 20 21 22 23 24 25 26 27 28
000
ASUS44 KLIX 211913
RWRLIX
NEW ORLEANS REGIONAL WEATHER ROUNDUP
NATIONAL WEATHER SERVICE NEW ORLEANS LA
200 PM CDT SAT OCT 21 2017

NOTE: "FAIR" INDICATES FEW OR NO CLOUDS BELOW 12,000 FEET WITH NO
      SIGNIFICANT WEATHER AND/OR OBSTRUCTIONS TO VISIBILITY.
      SKY/WX - SKY CONDITION AND SIGNIFICANT WEATHER.
      TMP - AIR TEMPERATURE.     DP    - DEWPOINT TEMPERATURE.
      RH  - RELATIVE HUMIDITY.   PRES  - PRESSURE.
      HI  - HEAT INDEX.          WCI   - WIND CHILL INDEX.

*  THESE STATIONS ARE NOT NWS OR FAA STATIONS AND ARE NOT UNDER
   NWS QUALITY CONTROL.

LAZ038-040-048-061>063-065>067-069-212000-
SOUTHEAST LOUISIANA

CITY           SKY/WX    TMP DP  RH WIND       PRES   REMARKS
N.O. INTL ARPT PTSUNNY   85  75  72 SE18      30.02F
N.O. LAKEFRONT CLOUDY    83  74  74 E15       30.04F
N.O. DOWNTOWN* MOCLDY    83  74  74 E8G20     30.04F
RESERVE*       MOCLDY    86  74  66 E6        30.02F
SLIDELL        CLOUDY    82  72  71 SE9G16    30.05F
BATON ROUGE    PTSUNNY   86  71  60 E14       30.00F
BOOTHVILLE     PTSUNNY   88  76  67 SE16G23   30.04F HX  99
BELLE CHASSE   LGT RAIN  85  76  74 SE17      30.02S
BOGALUSA*      CLOUDY    82  73  74 SE5       30.07F
GALLIANO*      CLOUDY    84  74  71 E9        30.02F
NEW ROADS*     MOCLDY    84  71  63 SE8G17    30.00F
GONZALES*      MOCLDY    85  72  64 SE12G22   30.00F
HAMMOND*       PTSUNNY   86  70  58 SE16G22   30.04F
HOUMA*         MOSUNNY   84  79  84 SE17      30.02F HX  96
PORT FOURCHON* CLEAR     82  77  83 SE15      30.02F

$$

MSZ070-080>082-212000-
SOUTHERN MISSISSIPPI

CITY           SKY/WX    TMP DP  RH WIND       PRES   REMARKS
MCCOMB         PTSUNNY   82  70  66 SE16      30.05F
GULFPORT       CLOUDY    84  74  71 E18G26    30.07F
BILOXI         CLOUDY    83  73  71 SE17G28   30.07F
PASCAGOULA     PTSUNNY   83  71  67 SE18G24   30.09F
STENNIS ARPT*  PTSUNNY   81  73  78 E12G21    30.06F

$$

COASTAL OBSERVATIONS
LAKE AND NEARSHORE STATIONS

STATION/POSITION TIME  TEMP    WIND        PRES    WAVE
                       AIR SEA DIR/SP/G            HT/PER
                 (UTC) (F)     (DEG/KT/KT) (MB)    (FT/S)
PASCAGOULA       1848   81     110/ 14/ 20 1018.5
WAVELAND YACHT   1848   78 74  130/ 14/ 19 1018.3
GRAND ISLE       1848   83 78  130/  6/ 13 1016.9
NEW CANAL        1848   85 75  150/  2/  9 1016.8
SHELL BEACH      1848   81 78  120/ 21/ 24 1017.4

OFFSHORE STATIONS

STATION/POSITION TIME  TEMP    WIND        PRES    WAVE
                       AIR SEA DIR/SP/G            HT/PER
                 (UTC) (F)     (DEG/KT/KT) (MB)    (FT/S)
64 S DAUPHIN ISL 1850   81 81  110/ 17/ 23 1017.9    7/ 7

$$





USA.gov is the U.S. government's official web portal to all federal, state and local government web resources and services.